User: anonymous   Login
Location: Unspecified
(0.0000°N, 0.0000°E)
Time: 23:02:07
(UTC+00:00)
Language:

STARLINK-31539 - Orbit

View from above orbital plane
View from above orbital plane
View from above satellite
View from above satellite

Ground track
Ground track

The orbit is defined by the following mean orbital elements,

1 59539U          26145.38946962 +.00000000 +00000-0 -87201-5 0 00003
2 59539  43.0019 270.4444 0001221 273.5881  86.4831 15.27569685    09
Epoch (UTC): 25 May 2026 09:20:50
Eccentricity: 0.0001221
inclination: 43.0019°
perigee height: 482 km
apogee height: 484 km
right ascension of ascending node: 270.4444°
argument of perigee: 273.5881°
revolutions per day: 15.27569685
mean anomaly at epoch: 86.4831°

The dashed part of the orbit path shows where the satellite is in the earth's shadow,  

DLR